TimeCDT,TemperatureF,Dew PointF,Humidity,Sea Level PressureIn,VisibilityMPH,Wind Direction,Wind SpeedMPH,Gust SpeedMPH,PrecipitationIn,Events,Conditions,WindDirDegrees,DateUTC
12:53 AM,45.0,37.9,76,30.05,10.0,South,8.1,-,N/A,,Clear,170,2012-10-09 05:53:00
1:53 AM,43.0,37.9,82,30.05,10.0,SSE,6.9,-,N/A,,Clear,160,2012-10-09 06:53:00
2:53 AM,44.6,39.2,81,30.03,10.0,South,9.2,-,N/A,,Clear,180,2012-10-09 07:53:00
3:53 AM,46.9,39.0,74,30.01,10.0,South,10.4,-,N/A,,Clear,190,2012-10-09 08:53:00
4:53 AM,48.0,39.0,71,29.99,10.0,South,13.8,-,N/A,,Clear,190,2012-10-09 09:53:00
5:53 AM,46.9,39.9,77,29.99,10.0,South,10.4,-,N/A,,Clear,190,2012-10-09 10:53:00
6:53 AM,46.9,39.9,77,29.99,10.0,South,11.5,-,N/A,,Clear,180,2012-10-09 11:53:00
7:53 AM,45.0,39.9,82,30.00,10.0,South,11.5,-,N/A,,Clear,170,2012-10-09 12:53:00
8:53 AM,50.0,41.0,71,29.99,10.0,South,13.8,-,N/A,,Clear,180,2012-10-09 13:53:00
9:53 AM,55.9,44.1,64,29.99,10.0,South,15.0,21.9,N/A,,Clear,180,2012-10-09 14:53:00
10:53 AM,60.1,45.0,57,29.98,10.0,South,16.1,24.2,N/A,,Clear,190,2012-10-09 15:53:00
11:53 AM,63.0,48.0,58,29.95,10.0,South,17.3,-,N/A,,Clear,170,2012-10-09 16:53:00
12:53 PM,66.9,50.0,54,29.93,10.0,South,13.8,-,N/A,,Mostly Cloudy,190,2012-10-09 17:53:00
1:53 PM,64.0,48.9,58,29.91,10.0,SSW,15.0,-,N/A,,Overcast,210,2012-10-09 18:53:00
2:53 PM,63.0,50.0,63,29.92,10.0,SSW,8.1,-,N/A,,Overcast,200,2012-10-09 19:53:00
3:53 PM,62.1,51.1,67,29.93,10.0,SSW,9.2,-,N/A,,Overcast,200,2012-10-09 20:53:00
4:18 PM,60.8,51.8,72,29.94,10.0,SSW,9.2,-,N/A,,Overcast,210,2012-10-09 21:18:00
4:53 PM,59.0,53.1,81,29.94,10.0,SW,9.2,-,N/A,,Overcast,220,2012-10-09 21:53:00
5:53 PM,57.0,54.0,89,29.96,5.0,WSW,5.8,-,N/A,,Overcast,250,2012-10-09 22:53:00
6:23 PM,55.4,55.4,100,29.96,2.5,Calm,Calm,-,N/A,,Overcast,0,2012-10-09 23:23:00
6:53 PM,55.9,55.0,97,29.97,5.0,South,4.6,-,N/A,,Overcast,180,2012-10-09 23:53:00
7:32 PM,55.4,55.4,100,29.99,7.0,Calm,Calm,-,N/A,,Overcast,0,2012-10-10 00:32:00
7:53 PM,55.9,55.0,97,30.00,6.0,Calm,Calm,-,N/A,,Overcast,0,2012-10-10 00:53:00
8:53 PM,55.0,54.0,96,30.02,4.0,Calm,Calm,-,N/A,,Mostly Cloudy,0,2012-10-10 01:53:00
8:58 PM,55.4,53.6,94,30.02,1.5,Calm,Calm,-,N/A,,Mostly Cloudy,0,2012-10-10 01:58:00
9:02 PM,55.4,53.6,94,30.02,0.5,Calm,Calm,-,N/A,Fog,Fog,0,2012-10-10 02:02:00
9:21 PM,53.6,51.8,94,30.04,0.2,Calm,Calm,-,N/A,Fog,Fog,0,2012-10-10 02:21:00
9:30 PM,51.8,51.8,100,30.04,0.2,Calm,Calm,-,N/A,Fog,Fog,0,2012-10-10 02:30:00
9:53 PM,53.1,53.1,100,30.05,0.8,Calm,Calm,-,N/A,,Overcast,0,2012-10-10 02:53:00
9:57 PM,53.6,53.6,100,30.06,2.0,Calm,Calm,-,N/A,,Overcast,0,2012-10-10 02:57:00
10:05 PM,53.6,53.6,100,30.06,4.0,Calm,Calm,-,N/A,,Overcast,0,2012-10-10 03:05:00
10:19 PM,53.6,53.6,100,30.07,4.0,Calm,Calm,-,N/A,,Overcast,0,2012-10-10 03:19:00
10:42 PM,53.6,53.6,100,30.08,4.0,WNW,3.5,-,N/A,,Overcast,300,2012-10-10 03:42:00
10:53 PM,53.1,53.1,100,30.08,4.0,NW,5.8,-,N/A,,Mostly Cloudy,310,2012-10-10 03:53:00
11:19 PM,53.6,53.6,100,30.10,9.0,NNW,9.2,-,N/A,,Mostly Cloudy,330,2012-10-10 04:19:00
11:27 PM,53.6,51.8,94,30.11,10.0,NNW,6.9,-,N/A,,Overcast,340,2012-10-10 04:27:00
11:53 PM,55.0,50.0,83,30.10,10.0,North,4.6,-,N/A,,Overcast,10,2012-10-10 04:53:00